EW5586 Weather Reports


Display with metric or nautical units.
time (UTC)temp
F
wind
direction
speed
MPH
gust
MPH
rain 1hr
in
rain 24hr
in
rain mn
in
humidity
%
barometer
mb
20260503200351 49 181 17.0 23.0 0.00 0.00 0.00 63 1008.4
20260503195850 49 209 18.0 24.0 0.00 0.00 0.00 61 1008.5
20260503195351 49 234 17.0 24.0 0.00 0.00 0.00 60 1008.5
20260503194850 49 187 16.0 22.0 0.00 0.00 0.00 60 1008.6
20260503193849 49 196 17.0 24.0 0.00 0.00 0.00 61 1008.9
20260503193350 49 178 18.0 24.0 0.00 0.00 0.00 61 1008.9
20260503192850 49 202 19.0 25.0 0.00 0.00 0.00 59 1008.9
20260503191849 49 197 19.0 25.0 0.00 0.00 0.00 61 1009.1
20260503191342 49 175 18.0 24.0 0.00 0.00 0.00 61 1009.1
20260503190837 49 203 18.0 25.0 0.00 0.00 0.00 58 1009.0
20260503190329 49 205 19.0 25.0 0.00 0.00 0.00 61 1009.1
20260503185823 48 0 18.0 23.0 0.00 0.00 0.00 61 1009.1
20260503185318 49 209 16.0 23.0 0.00 0.00 0.00 57 1009.1
20260503184811 49 0 15.0 23.0 0.00 0.00 0.00 59 1009.1
20260503184306 49 200 13.0 20.0 0.00 0.00 0.00 57 1009.1
20260503183759 49 0 12.0 18.0 0.00 0.00 0.00 62 1009.1
20260503183253 49 0 12.0 22.0 0.00 0.00 0.00 64 1009.2
20260503182747 48 184 14.0 22.0 0.00 0.00 0.00 65 1009.3
20260503182241 48 208 14.0 20.0 0.00 0.00 0.00 64 1009.3
20260503181735 48 219 15.0 21.0 0.00 0.00 0.00 63 1009.4
20260503181229 49 190 16.0 23.0 0.00 0.00 0.00 56 1009.3
20260503180723 49 213 16.0 23.0 0.00 0.00 0.00 55 1009.3
20260503180224 49 220 13.0 21.0 0.00 0.00 0.00 62 1009.3
20260503175724 49 196 12.0 19.0 0.00 0.00 0.00 62 1009.4
20260503175227 50 173 12.0 20.0 0.00 0.00 0.00 60 1009.4
20260503174224 49 192 14.0 21.0 0.00 0.00 0.00 62 1009.7
20260503173721 49 0 14.0 21.0 0.00 0.00 0.00 55 1009.5
20260503173222 49 208 15.0 24.0 0.00 0.00 0.00 56 1009.7
20260503172720 48 199 15.0 24.0 0.00 0.00 0.00 56 1009.7
20260503172221 48 213 15.0 25.0 0.00 0.00 0.00 60 1009.7
20260503171720 49 193 13.0 25.0 0.00 0.00 0.00 60 1009.7
20260503171220 49 205 13.0 21.0 0.00 0.00 0.00 63 1009.7
20260503170719 49 233 14.0 21.0 0.00 0.00 0.00 64 1009.8
20260503170218 49 169 14.0 21.0 0.00 0.00 0.00 61 1009.9
20260503160144 52 217 5.0 12.0 0.00 0.00 0.00 42 1010.7
20260503150546 0 0.0 0.0 0.00 0.00 0.00 1011.4
20260503131151 0 0.0 0.0 0.00 0.00 0.00 1012.1
20260503130644 0 0.0 0.0 0.00 0.00 0.00 1012.1
20260503110129 0 0.0 0.0 0.00 0.00 0.00 1011.7
20260503100225 0 0.0 0.0 0.00 0.00 0.00 1011.5
20260503081315 39 279 0.0 0.0 0.00 0.00 0.00 85 1011.9
20260503080815 39 279 0.0 0.0 0.00 0.00 0.00 85 1011.9
20260503080315 39 279 0.0 0.0 0.00 0.00 0.00 85 1011.9
20260503072312 39 279 0.0 0.0 0.00 0.00 0.00 85 1011.8
20260503071811 39 279 0.0 0.0 0.00 0.00 0.00 85 1011.9
20260503071311 39 279 0.0 0.0 0.00 0.00 0.00 85 1011.8
20260503070813 40 279 0.0 0.0 0.00 0.00 0.00 85 1011.8
20260503070308 40 279 0.0 0.0 0.00 0.00 0.00 85 1011.8
20260503060256 40 279 0.0 0.0 0.00 0.00 0.00 85 1012.0
20260503054251 40 279 0.0 0.0 0.00 0.00 0.00 85 1012.0
20260503053743 40 279 0.0 0.0 0.00 0.00 0.00 85 1012.0
20260503053236 40 279 0.0 0.0 0.00 0.00 0.00 85 1012.0
20260503052730 40 279 0.0 0.0 0.00 0.00 0.00 85 1012.1
20260503052224 40 279 0.0 0.0 0.00 0.00 0.00 85 1012.1
20260503051718 40 279 0.0 0.0 0.00 0.00 0.00 84 1012.2
20260503051213 41 279 0.0 0.0 0.00 0.00 0.00 84 1012.2
20260503050706 41 279 0.0 0.0 0.00 0.00 0.00 84 1012.2
20260503050201 41 279 0.0 0.0 0.00 0.00 0.00 84 1012.2
20260503044642 41 279 0.0 0.0 0.00 0.00 0.00 83 1012.3
20260503044137 41 275 0.0 0.0 0.00 0.00 0.00 83 1012.3
20260503043630 41 275 0.0 0.0 0.00 0.00 0.00 83 1012.4
20260503042619 41 251 0.0 1.0 0.00 0.00 0.00 83 1012.3
20260503042112 42 251 0.0 1.0 0.00 0.00 0.00 83 1012.4
20260503041606 42 251 0.0 0.0 0.00 0.00 0.00 82 1012.4
20260503041100 42 251 0.0 0.0 0.00 0.00 0.00 82 1012.4
20260503034530 42 252 0.0 7.0 0.00 0.00 0.00 82 1012.5
20260503033518 42 219 0.0 2.0 0.00 0.00 0.00 82 1012.5
20260503033013 42 219 0.0 0.0 0.00 0.00 0.00 82 1012.6
20260503032506 43 219 1.0 4.0 0.00 0.00 0.00 82 1012.6
20260503031455 43 219 0.0 1.0 0.00 0.00 0.00 82 1012.6
20260503025937 43 219 2.0 4.0 0.00 0.00 0.00 83 1012.8
20260503024419 43 238 3.0 6.0 0.00 0.00 0.00 85 1012.8
20260503023912 43 230 4.0 8.0 0.00 0.00 0.00 86 1012.9
20260503023406 43 223 6.0 9.0 0.00 0.00 0.00 86 1012.9
20260503022900 43 193 7.0 9.0 0.00 0.00 0.00 86 1012.9
20260503022354 43 205 7.0 10.0 0.00 0.00 0.00 86 1012.9
20260503021342 43 187 7.0 10.0 0.00 0.00 0.00 86 1013.0
20260503020836 43 198 7.0 9.0 0.00 0.00 0.00 86 1013.1
20260503020330 43 215 7.0 9.0 0.00 0.00 0.00 86 1013.1
20260503015824 43 0 7.0 9.0 0.00 0.00 0.00 86 1013.1
20260503014814 43 195 7.0 10.0 0.00 0.00 0.00 86 1013.2
20260503014306 43 188 7.0 10.0 0.00 0.00 0.00 85 1013.2
20260503013805 43 196 7.0 11.0 0.00 0.00 0.00 85 1013.2
20260503013255 43 200 8.0 11.0 0.00 0.00 0.00 85 1013.2
20260503012242 43 192 8.0 13.0 0.00 0.00 0.00 84 1013.2
20260503011736 44 0 9.0 13.0 0.00 0.00 0.00 84 1013.1
20260503010725 44 211 10.0 13.0 0.00 0.00 0.00 83 1013.1
20260503010218 44 201 10.0 14.0 0.00 0.00 0.00 84 1013.1
20260503005712 44 219 10.0 14.0 0.00 0.00 0.00 83 1013.0
20260503005207 44 203 9.0 13.0 0.00 0.00 0.00 83 1013.0
20260503004700 44 186 9.0 12.0 0.00 0.00 0.00 83 1012.9
20260503003648 43 196 8.0 10.0 0.00 0.00 0.00 83 1012.9
20260503002640 44 0 6.0 10.0 0.00 0.00 0.00 84 1012.8
20260503002141 44 204 6.0 10.0 0.00 0.00 0.00 83 1012.8
20260503001640 43 237 7.0 12.0 0.00 0.00 0.00 82 1012.7
20260503001140 43 172 9.0 12.0 0.00 0.00 0.00 83 1012.7
20260503000642 44 0 9.0 12.0 0.00 0.00 0.00 84 1012.7
20260503000140 44 0 9.0 13.0 0.00 0.00 0.00 84 1012.7
20260502235640 44 217 8.0 13.0 0.00 0.00 0.00 84 1012.7
20260502234640 44 212 8.0 10.0 0.00 0.00 0.00 85 1012.8
20260502234141 44 0 8.0 11.0 0.00 0.00 0.00 84 1012.7
20260502233140 44 214 8.0 12.0 0.00 0.00 0.00 84 1012.7
20260502232641 44 200 8.0 11.0 0.00 0.00 0.00 84 1012.7
20260502232140 44 211 8.0 11.0 0.00 0.00 0.00 83 1012.7
20260502231640 44 0 8.0 11.0 0.00 0.00 0.00 83 1012.7
20260502231141 44 213 6.0 11.0 0.00 0.00 0.00 81 1012.7
20260502230640 44 205 4.0 9.0 0.00 0.00 0.00 79 1012.7
20260502230140 44 217 5.0 9.0 0.00 0.00 0.00 78 1012.7
20260502225141 44 210 6.0 10.0 0.00 0.00 0.00 77 1012.6
20260502224640 44 193 5.0 10.0 0.00 0.00 0.00 77 1012.6
20260502224141 44 227 5.0 9.0 0.00 0.00 0.00 77 1012.5
20260502223139 44 234 9.0 12.0 0.00 0.00 0.00 78 1012.5
20260502222638 44 0 10.0 15.0 0.00 0.00 0.00 78 1012.5
20260502222138 44 205 10.0 15.0 0.00 0.00 0.00 80 1012.5
20260502221639 44 227 10.0 14.0 0.00 0.00 0.00 80 1012.5
20260502221138 44 182 10.0 14.0 0.00 0.00 0.00 79 1012.5
20260502220640 44 207 9.0 15.0 0.00 0.00 0.00 78 1012.4
20260502220138 44 199 9.0 15.0 0.00 0.00 0.00 77 1012.4
20260502215136 44 0 8.0 16.0 0.00 0.00 0.00 77 1012.5
20260502214634 44 207 10.0 16.0 0.00 0.00 0.00 79 1012.4
20260502213634 44 213 11.0 16.0 0.00 0.00 0.00 77 1012.5
20260502213134 44 0 9.0 16.0 0.00 0.00 0.00 76 1012.5
20260502212634 44 213 7.0 14.0 0.00 0.00 0.00 77 1012.5
20260502212135 44 206 4.0 11.0 0.00 0.00 0.00 76 1012.5
20260502211634 44 234 2.0 8.0 0.00 0.00 0.00 77 1012.5
20260502211134 44 248 2.0 8.0 0.00 0.00 0.00 76 1012.5
20260502210134 44 238 3.0 10.0 0.00 0.00 0.00 76 1012.5
20260502205634 44 0 4.0 10.0 0.00 0.00 0.00 76 1012.5
20260502205135 44 247 5.0 12.0 0.00 0.00 0.00 76 1012.5
20260502204634 44 223 7.0 16.0 0.00 0.00 0.00 75 1012.5
20260502204132 44 222 9.0 16.0 0.00 0.00 0.00 75 1012.4
20260502203632 44 219 8.0 14.0 0.00 0.00 0.00 74 1012.5
20260502202633 44 202 5.0 10.0 0.00 0.00 0.00 74 1012.4
20260502202132 44 221 5.0 12.0 0.00 0.00 0.00 74 1012.4
20260502201632 44 211 7.0 15.0 0.00 0.00 0.00 74 1012.5
20260502201132 44 232 7.0 15.0 0.00 0.00 0.00 74 1012.4